This is the latest recevied weather packets stored in our database for station/object IZ1UQG-N2. If no packets are shown the sender has not sent any weather packets the latest 10 day(s).
| Time | Temp. | Humidity | Pressure | Rain* | Wind** | Luminosity | Snow |
|---|---|---|---|---|---|---|---|
| 1777539430 | 14.44° C | 54% | 1023.2 hPa | 0 mm | - | 316 W/m² | - |
| 1777539370 | 14.44° C | 57% | 1023.2 hPa | 0 mm | - | 313 W/m² | - |
| 1777539368 | 14.44° C | 57% | 1023.2 hPa | 0 mm | - | 313 W/m² | - |
| 1777539312 | 14.44° C | 57% | 1023.2 hPa | 0 mm | - | 309 W/m² | - |
| 1777539252 | 14.44° C | 57% | 1023.2 hPa | 0 mm | - | 308 W/m² | - |
| 1777539191 | 14.44° C | 59% | 1023.2 hPa | 0 mm | - | 306 W/m² | - |
| 1777539187 | 14.44° C | 59% | 1023.2 hPa | 0 mm | - | 306 W/m² | - |
| 1777539131 | 14.44° C | 58% | 1023.1 hPa | 0 mm | - | 304 W/m² | - |
| 1777539071 | 14.44° C | 57% | 1023.1 hPa | 0 mm | - | 302 W/m² | - |
| 1777539011 | 14.44° C | 58% | 1023.3 hPa | 0 mm | - | 299 W/m² | - |
| 1777539006 | 14.44° C | 58% | 1023.3 hPa | 0 mm | - | 299 W/m² | - |
| 1777538950 | 14.44° C | 58% | 1023.3 hPa | 0 mm | - | 299 W/m² | - |
| 1777538892 | 13.89° C | 57% | 1023.1 hPa | 0 mm | - | 295 W/m² | - |
| 1777538832 | 13.89° C | 57% | 1023.2 hPa | 0 mm | - | 295 W/m² | - |
| 1777538827 | 13.89° C | 57% | 1023.2 hPa | 0 mm | - | 295 W/m² | - |
| 1777538771 | 13.89° C | 56% | 1023.2 hPa | 0 mm | - | 290 W/m² | - |
| 1777538710 | 13.89° C | 57% | 1023.2 hPa | 0 mm | - | 288 W/m² | - |
| 1777538650 | 13.89° C | 59% | 1023.2 hPa | 0 mm | - | 287 W/m² | - |
| 1777538648 | 13.89° C | 59% | 1023.2 hPa | 0 mm | - | 287 W/m² | - |
| 1777538592 | 13.89° C | 61% | 1023.2 hPa | 0 mm | - | 285 W/m² | - |
| 1777538531 | 13.89° C | 63% | 1023.1 hPa | 0 mm | - | 280 W/m² | - |
| 1777538475 | 13.89° C | 60% | 1023.2 hPa | 0 mm | - | 271 W/m² | - |
| 1777538468 | 13.89° C | 60% | 1023.2 hPa | 0 mm | - | 271 W/m² | - |
| 1777538412 | 13.89° C | 60% | 1023.3 hPa | 0 mm | - | 269 W/m² | - |
| 1777538352 | 13.89° C | 61% | 1023.2 hPa | 0 mm | - | 271 W/m² | - |
* Rain latest hour (hover to see other rain measurements)
** Current wind speed in m/s (hover to see current wind gust speed)